Location: Bergfeld
(52.0500°N, 11.7833°E)
Time: 19:20:29
(UTC+00:00)

NOSS 2-1 (E) - Pass Details

Date: 17 February 2020
Orbit: 450 x 1753 km, 63.3° (Epoch: 03 April)

Event Time Altitude Azimuth Distance (km) Brightness Sun altitude
Exits shadow 05:02:06 23° 259° (W) 1,059 4.2 -13.4°
Maximum altitude 05:04:02 48° 324° (NW) 666 3.5 -13.1°
Drops below altitude 10° 05:08:02 10° 40° (NE) 1,910 6.6 -12.5°
Sets 05:10:38 0° 46° (NE) 2,983 7.7 -12.1°
